Regional Weather Roundup
Issued by NWS

Home | Current Version | Previous Version | Graphics & Text | Print | Product List | Glossary On
Versions: 1 2 3 4 5 6 7 8 9 10 11 12 13 14 15 16 17 18 19 20 21 22 23 24 25 26 27 28 29 30 31 32 33 34 35 36 37 38 39 40 41 42 43 44 45 46 47 48 49 50
000
ASUS43 KBIS 022210
RWRND

NORTH DAKOTA REGIONAL WEATHER ROUNDUP
NATIONAL WEATHER SERVICE BISMARCK ND
500 PM CDT SUN AUG 02 2015

NOTE: "FAIR" INDICATES FEW OR NO CLOUDS BELOW 12,000 FEET WITH NO
SIGNIFICANT WEATHER AND/OR OBSTRUCTIONS TO VISIBILITY.


NDZ001>003-009>011-017-022300-
NORTHWEST NORTH DAKOTA

CITY           SKY/WX    TMP DP  RH WIND       PRES   REMARKS
WILLISTON      SUNNY     81  47  30 NW13G20   29.98F
MINOT          PTSUNNY   79  49  34 NW14G22   29.93F
$$

NDZ018>021-031>035-040>046-022300-
SOUTHWEST NORTH DAKOTA

CITY           SKY/WX    TMP DP  RH WIND       PRES   REMARKS
BISMARCK       SUNNY     80  52  37 NW16      29.93F
DICKINSON      SUNNY     82  46  28 N14       29.97F
GARRISON         N/A     77  51  40 NW13G23   29.95S
HETTINGER ARPT SUNNY     84  47  27 N13       29.99F
$$

NDZ004>008-012>016-024-026-027-054-022300-
NORTHEAST NORTH DAKOTA

CITY           SKY/WX    TMP DP  RH WIND       PRES   REMARKS
GRAND FORKS    MOSUNNY   77  45  32 NW18G25   29.82S
GRND FRKS AFB  SUNNY     76  48  37 NW14G23   29.83S
DEVILS LAKE    SUNNY     75  46  35 NW17      29.87S
$$

NDZ022-023-025-028>030-036>039-047>053-022300-
SOUTHEAST NORTH DAKOTA

CITY           SKY/WX    TMP DP  RH WIND       PRES   REMARKS
FARGO          SUNNY     79  48  33 NW17G26   29.83S
JAMESTOWN      SUNNY     76  53  44 N13       29.88F
$$




USA.gov is the U.S. government's official web portal to all federal, state and local government web resources and services.